Location: Bédeille
(43.0872°N, 1.1041°E)
Time: 07:57:08
(UTC+00:00)

Cosmos 2360 Rocket - Pass Details

Date: 03 February 2023
Orbit: 832 x 846 km, 71.0° (Epoch: 26 March)

Event Time Altitude Azimuth Distance (km) Brightness Sun altitude
Rises 18:00:58 0° 185° (S) 3,369 5.6 -9.6°
Reaches altitude 10° 18:03:28 10° 180° (S) 2,441 4.8 -10.1°
Maximum altitude 18:08:48 47° 108° (ESE) 1,100 2.5 -11.0°
Drops below altitude 10° 18:14:11 10° 36° (NE) 2,466 4.2 -12.0°
Enters shadow 18:15:28 - 32° (NNE) 2,936 4.6 -12.2°
